Miscellaneous Local Product
Issued by NWS North Platte, NE

Home | Current Version | Previous Version | Text Only | Print | Product List | Glossary On
Versions: 1 2 3 4 5 6 7 8 9 10 11 12 13 14 15 16 17 18 19 20 21 22 23 24 25 26 27 28 29 30 31 32 33 34 35 36 37 38 39 40 41 42 43 44 45 46 47 48 49 50
000
AXUS43 KLBF 271010
MISLBF


WESTERN AND NORTH CENTRAL NEBRASKA HOURLY WEATHER ROUNDUP
NATIONAL WEATHER SERVICE NORTH PLATTE NE
500 AM CDT WED MAY 27 2015

***STATIONS NOT REPORTING VARIABLES SUCH AS SKY/WEATHER OR
PRESSURE ARE PROVIDED BY THE NEBRASKA DEPARTMENT OF
ROADS...RAWS...AND APRS NETWORKS...AND ARE NOT UNDER
NATIONAL WEATHER SERVICE QUALITY CONTROL***

...OBSERVATIONS IN AND NEAR THE EASTERN PANHANDLE OF NEBRASKA...

CITY           SKY/WX    TMP DP  RH WIND       PRES   REMARKS
PINE RIDGE     CLOUDY    55  49  80 SE10      30.02S
CHADRON        PTCLDY    54  50  86 SW6       30.01R
ALLIANCE       CLOUDY    53  50  89 SE9       30.04S
SIDNEY         LGT RAIN  55  52  89 S15       30.05F
WHITECLAY        N/A     53  52  95 SE7         N/A
BIG SPRINGS      N/A     56  51  85 SW3         N/A
$$

...OBSERVATIONS IN NORTH CENTRAL NEBRASKA...

CITY           SKY/WX    TMP DP  RH WIND       PRES   REMARKS
VALENTINE      CLEAR     48  45  89 CALM      30.03R
THEDFORD       PTCLDY    53  47  78 SW8       30.05F
AINSWORTH      CLEAR     51  46  83 SW6       30.03S
O`NEILL        CLEAR     52  49  89 SW5       30.01S
ORD            CLEAR     47  44  90 CALM      30.02R
BROKEN BOW     PTCLDY    49  46  90 CALM      30.04S
BROWNLEE         N/A     56  46  69 S5          N/A
VALENTINE NWR    N/A     51  46  83 CALM        N/A
SPRINGVIEW       N/A     46  44  94 CALM        N/A
HALSEY           N/A     52  44  75 SW3         N/A
BREWSTER         N/A     49  46  90 CALM        N/A
ROSE             N/A     51  48  87 S3          N/A
NEWPORT          N/A     48  46  91 SW3         N/A
SARGENT          N/A     47  45  94 CALM        N/A
COMSTOCK         N/A     56  51  85 W8          N/A
EWING            N/A     52  50  92 CALM        N/A
$$

...OBSERVATIONS IN SOUTHWEST NEBRASKA AND FAR NORTHEAST COLORADO...

CITY           SKY/WX    TMP DP  RH WIND       PRES   REMARKS
WRAY           FAIR      54  51  90 E6        30.05F
HOLYOKE        FAIR      55  50  82 SE10      30.06F
IMPERIAL       CLOUDY    54  49  83 S10       30.06S
OGALLALA       MOCLDY    55  49  81 CALM      30.06R
NORTH PLATTE   PTCLDY    47  44  90 E5        30.05S
MCCOOK         MOCLDY    51  48  89 SW5       30.06R
LEXINGTON      PTCLDY    47  46  93 NW3       30.06S
PAXTON           N/A     55  50  84 SE3         N/A
GOTHENBURG       N/A     50  45  84 CALM        N/A
CALLAWAY         N/A     51  47  88 SE6         N/A
$$

...NORTH PLATTE AREA...

CITY           SKY/WX    TMP DP  RH WIND       PRES   REMARKS
AIRPORT        PTCLDY    47  44  90 E5        30.05S
DOWNTOWN         N/A     51  47  87 CALM        N/A
$$

...SOME WEATHER OBSERVATIONS FROM AROUND THE REGION...

CITY           SKY/WX    TMP DP  RH WIND       PRES   REMARKS
DENVER         PTCLDY    50  44  80 W14       30.06F
LARAMIE        CLOUDY    46  42  86 SW8       30.13S
CHEYENNE       CLOUDY    49  46  90 CALM      30.09R
SCOTTSBLUFF    PTCLDY    53  50  89 E9        30.02F
RAPID CITY     MOCLDY    50  47  89 SE9       29.97S
PIERRE         CLEAR     50  46  86 CALM      29.95S
WINNER         FAIR      59  45  59 SW7       29.99S
SIOUX FALLS    CLEAR     50  46  86 CALM      29.94R
OMAHA          CLEAR     55  53  93 CALM      30.00R
GRAND ISLAND   CLEAR     51  46  83 W5        30.04R
KANSAS CITY    PTCLDY    59  54  83 W6        30.01R
WICHITA        PTCLDY    60  58  92 CALM      30.03R
HAYS           PTCLDY    54  46  76 NW5       30.05S
LIBERAL        CLOUDY    63  55  77 SE3       30.07F
GOODLAND       CLOUDY    54  52  93 SE13      30.06F
$$



USA.gov is the U.S. government's official web portal to all federal, state and local government web resources and services.